Regional Weather Roundup
Issued by NWS

Home | Current Version | Previous Version | Graphics & Text | Print | Product List | Glossary On
Versions: 1 2 3 4 5 6 7 8 9 10 11 12 13 14 15 16 17 18 19 20 21 22 23 24 25 26 27 28 29 30 31 32 33 34 35 36 37 38 39 40 41 42 43 44 45 46 47 48 49 50
338
ASUS45 KTFX 160710
RWRMT
MONTANA REGIONAL WEATHER ROUNDUP
NATIONAL WEATHER SERVICE GREAT FALLS MT
1200 AM MST TUE JAN 16 2018

NOTE: "FAIR" INDICATES FEW OR NO CLOUDS BELOW 12000 FEET WITH NO
SIGNIFICANT WEATHER AND/OR OBSTRUCTIONS TO VISIBILITY.

MTZ001>007-043-160800-
WEST OF THE DIVIDE

CITY           SKY/WX    TMP DP  RH WIND       PRES   REMARKS
KALISPELL      FOG       16  15  96 SW5       30.30F VSB 1/4
MISSOULA       FAIR      34  25  69 SE16      30.28F WCI  24
BUTTE          FAIR      17  13  84 N8        30.32F WCI   7
MULLAN PASS    FOG       27  24  89 S13       30.15S VSB 1/2 WCI  16
ANACONDA         N/A     27  21  80 S6        30.32F WCI  20
DEER LODGE       N/A     27  23  86 S6        30.33S WCI  20
EUREKA           N/A     30  25  80 MISG      30.32F
HAMILTON         N/A     28  25  86 SE3       30.27F
PLAINS           N/A     30  23  75 CALM      30.27F
RONAN          FOG       28  28 100 CALM      30.30F VSB 1/2
$$

MTZ008-052>055-160800-
SOUTHWEST MONTANA

CITY           SKY/WX    TMP DP  RH WIND       PRES   REMARKS
BOZEMAN        FAIR      11   7  84 S3        30.40F
DILLON         CLOUDY    27  22  81 SW8       30.35F WCI  19
ENNIS          PTCLDY    16  12  86 CALM      30.40F
W YELLOWSTONE  FAIR      -6  -9  84 CALM      30.39S
THREE FORKS      N/A     19  15  84 CALM      30.34S
TWIN BRIDGES     N/A     30  20  66 CALM      30.31
$$

MTZ009-010-012-014-046-048-049-054-160800-
EAST SLOPES AND CENTRAL MONTANA

CITY           SKY/WX    TMP DP  RH WIND       PRES   REMARKS
CUT BANK       CLOUDY     0  -1  96 S6        30.24F FOG     WCI -12
GREAT FALLS    FAIR      23  10  57 S18       30.27F WCI   9
MALMSTROM AFB  FOG        0  -3  90 E6        30.30F VSB 3/4 WCI -12
HELENA         FAIR      14  12  92 CALM      30.38F
AUGUSTA        FAIR      17  18 100 S5        30.22F
BOWMANS CRNR   FAIR      26  19  77 S38G45    30.18F WCI   7
CHOTEAU          N/A     14  12  92 SW5       30.25F
FAIRFIELD      FAIR       8   8  98 CALM      30.24F
POWER          FAIR       4   1  87 SE7       30.25F WCI  -8
RAYNESFORD     FAIR      17  11  78 E13       30.25F WCI   3
ULM            FAIR      23  13  65 S8        30.27F WCI  14
WHITE SULPHUR    N/A      0  -4  85 CALM      30.36F
$$

MTZ011-013-016-021-045-047-050-051-160800-
NORTH CENTRAL MONTANA

CITY           SKY/WX    TMP DP  RH WIND       PRES   REMARKS
HAVRE          FAIR     -29 -34  76 W3        30.43F
LEWISTOWN      FAIR       6   1  80 SE9       30.30F WCI  -8
N BAR RANCH    FAIR      27 -22  11 VRB6G18   30.34F WCI  20
CHINOOK          N/A    -11 -17  77 SE3       30.45F
DENTON         FAIR       4   1  87 MISG      30.28F
GRASS RANGE    FAIR       9  -2  60 W10       30.30F WCI  -5
STANFORD       FAIR      18   4  55 SE3       30.24F
WINIFRED       FAIR     -10 -13  84 SE10      30.32F WCI -28
$$

MTZ017>020-022>027-061-062-160800-
NORTHEAST MONTANA

CITY           SKY/WX    TMP DP  RH WIND       PRES   REMARKS
GLASGOW        FAIR     N/A N/A N/A E17       30.59F
GLENDIVE       FAIR     -16 -22  74 SW10      30.67F WCI -36
MALTA          CLEAR    -11 -18  70 E7        30.54F WCI -26
SIDNEY         FAIR     -18 -24  74 S7        30.72F WCI -35
WOLF POINT     FAIR     -16 -24  67 NE3       30.68F
PLENTYWOOD       N/A    -15 -20  76 CALM      30.64F
POPLAR           N/A    -18 -24  76 N3        30.69F
SCOBEY           N/A    -15 -25  61 NW5       30.52
$$

MTZ028>42-056>058-160800-
SOUTHCENTRAL AND SOUTHEAST MONTANA

CITY           SKY/WX    TMP DP  RH WIND       PRES   REMARKS
BAKER          FAIR     -16 -21  78 SE8       30.64F WCI -34
BILLINGS       FAIR      -2  -5  87 SW7       30.47F WCI -15
LIVINGSTON     CLOUDY    19  19 100 NW7       30.39F WCI  10
MILES CITY     FAIR     -15 -18  86 SE9       30.63F WCI -34
BIG TIMBER     CLOUDY    18  16  93 W6        30.42F WCI   9
EKALAKA          N/A     -3 -12  65 SE13      30.47F WCI -22
FORSYTH          N/A    -18 -24  76 CALM      30.59F
HARLOWTON      CLOUDY    14  12  92 W3        30.41F
$$

REGIONAL REPORTS...DAKOTAS

CITY           SKY/WX    TMP DP  RH WIND       PRES   REMARKS
WILLISTON      FAIR     -17 -24  70 SW3       30.72F
MINOT          FAIR     -14 -21  71 CALM      30.75F
DICKINSON      FAIR     -15 -21  74 S5        30.66F
BEACH          FAIR     -17 -22  76 S9        30.67F WCI -36
CROSBY         FAIR     -15 -20  76 SW16      30.70F WCI -39
WATFORD CITY   FAIR     -22 -27  76 CALM      30.72F
BISMARCK       FAIR     -18 -24  74 W3        30.83F
GRAND FORKS    FAIR     -13 -19  75 NW9       30.85S WCI -31
FARGO          FAIR     -11 -16  78 N17       30.81S WCI -35
BUFFALO SD       N/A    -20 -24  82 SE7       30.57F WCI -37
RAPID CITY     FAIR      -9 -13  83 W7        30.67F WCI -24
$$

REGIONAL REPORTS...WYOMING/IDAHO/WASHINGTON

CITY           SKY/WX    TMP DP  RH WIND       PRES   REMARKS
GILLETTE         N/A     -4 -11  72 S12       30.52F WCI -22
SHERIDAN       FAIR     -11 -16  78 CALM      30.51F
BUFFALO WY     FAIR       7  -4  60 S5        30.45F
CODY           FAIR      12   9  87 S5        30.44F
YELLOWSTONE LA   N/A     -3  -7  82 CALM      30.40S
IDAHO FALLS    FAIR      26  24  92 NW3       30.36F
SALMON         CLOUDY    30  25  81 S10       30.39F WCI  21
BOISE          FAIR      38  29  70 S9        30.21F WCI  31
SPOKANE        FAIR      35  31  85 NE9       30.13R WCI  28
$$

REGIONAL REPORTS...ALBERTA

CITY           SKY/WX    TMP DP  RH WIND       PRES   REMARKS
CALGARY        CLEAR     18  14  86 SW13      30.04F WCI   4
CARDSTON         N/A     12   3  67 MISG        N/A
EDMONTON       CLEAR      9   3  78 S8        30.09F WCI  -4
FORT MCMURRAY  CLEAR      7   1  78 E8        30.11F WCI  -6
HIGH LEVEL     CLEAR      1  -2  85 CALM      29.95F
LETHBRIDGE     CLEAR     19  14  79 SW9       30.15F WCI   9
LLOYDMINSTER   PTCLDY     0  -8  71 S13       30.24F WCI -18
MEDICINE HAT   CLEAR    -13 -17  84 N2        30.28F
MILK RIVER       N/A      1  -2  85 S15         N/A  WCI -18
PEACE RIVER    CLEAR      9   5  85 SW5       29.96F
PINCHER CREEK  CLEAR     36  23  60 W21       30.10F WCI  24
WATERTON GATE    N/A     39  16  38 SW25G33     N/A  WCI  28
$$

REGIONAL REPORTS...SASKATCHEWAN

CITY           SKY/WX    TMP DP  RH WIND       PRES   REMARKS
CORONACH         N/A    -15 -20  76 SE8         N/A  WCI -32
CYPRESS HILLS    N/A      5 -11  47 S14         N/A  WCI -12
ESTEVAN        CLEAR    -13 -18  77 SW13      30.69F WCI -34
MOOSE JAW        N/A     -9 -15  77 SE9         N/A  WCI -27
PRINCE ALBERT  CLEAR    -18 -24  76 E3        30.47F
REGINA         CLEAR    -11 -18  70 SE14      30.59F WCI -33
ROCKGLEN         N/A     -4 -11  71 S20         N/A  WCI -27
SASKATOON      CLEAR     -2 -11  65 S10       30.47F WCI -19
SWIFT CURRENT  CLEAR      1  -6  71 S28G38    30.32F WCI -23
VAL MARIE        N/A    -17 -24  70 CALM        N/A
$$




USA.gov is the U.S. government's official web portal to all federal, state and local government web resources and services.